[[{"header":{"parameterUnit":"m.s-1","parameterCategory":1,"la1":30.2991,"la2":30.254,"lo1":-89.0895,"lo2":-89.0444,"dy":0.0017,"dx":0.0017,"nx":28,"ny":28,"refTime":"2024-02-29T09:00:00:Z","depth":0,"parameterNumber":2,"parameterNumberName":"U-component_of_WINDS"},"data":[0,0,0,0,0,0,0,0,0,0,0,0,0,0,0,0,0,0,0,0,0,0,0,0,0,0,0,0,0,0,0,0,0,0,0,0,0,0,0,0,0,0,0,0,0,0,0,0,0,0,0,0,0,0,0,0,0,0,-6.3092,-6.3091,0,-6.308,-6.308,-6.308,-6.292,-6.2916,-6.2912,-6.2908,-6.29,-6.2904,-6.2907,0,0,0,0,0,0,0,0,0,0,0,0,0,-6.298,-6.2983,-6.3092,-6.3091,-6.3091,-6.308,-6.308,-6.3079,-6.2921,-6.2916,-6.2911,-6.2907,-6.2899,-6.2903,-6.2907,0,0,0,0,0,0,0,0,0,0,0,0,0,-6.3004,-6.2983,-6.3092,-6.3011,-6.3003,-6.308,-6.308,-6.3079,-6.2922,-6.2916,-6.291,-6.2904,-6.2898,-6.2903,-6.2908,-6.3062,0,0,-6.2924,-6.2927,0,0,0,0,0,0,0,0,-6.3003,-6.3009,-6.3023,-6.3016,-6.3008,-6.2995,-6.3037,-6.3074,-6.2924,-6.2953,-6.2908,-6.2901,-6.2937,-6.2939,-6.295,-6.3062,-6.3062,-6.2925,-6.2928,-6.293,-6.2932,0,0,0,0,0,0,0,-6.3002,-6.3008,-6.3087,-6.3023,-6.3014,-6.2976,-6.2973,-6.3043,-6.2979,-6.295,-6.2938,-6.2939,-6.2932,-6.2945,-6.2949,-6.3061,-6.2925,-6.2929,-6.2933,-6.2935,-6.3298,-6.3304,0,0,0,0,0,0,-6.3011,-6.3008,-6.3087,-6.3087,-6.2991,-6.2983,-6.2979,-6.3006,-6.2978,-6.2968,-6.2944,-6.2932,-6.2939,-6.2943,-6.2948,-6.3125,-6.293,-6.2935,-6.2938,-6.3292,-6.3299,-6.3306,0,0,0,0,0,0,-6.3009,-6.3019,-6.3088,-6.3044,-6.305,-6.2991,-6.3022,-6.3009,-6.3021,-6.2974,-6.2962,-6.2969,-6.2934,-6.294,-6.3034,-6.3122,-6.2938,-6.2943,-6.3284,-6.3294,-6.3303,-6.3482,0,0,0,0,0,0,-6.3006,-6.302,-6.3077,-6.3046,-6.3053,-6.3174,-6.3028,-6.3013,-6.3031,-6.3014,-6.2994,-6.2985,-6.293,-6.3027,-6.304,-6.3126,-6.2947,-6.3276,-6.3288,-6.33,-6.3468,-6.3496,-6.3521,0,0,0,0,0,-6.3003,-6.3129,-6.3081,-6.3091,-6.3123,-6.318,-6.3183,-6.3117,-6.3039,-6.3096,-6.3065,-6.2986,-6.3111,-6.3038,-6.3051,-6.3141,-6.327,-6.3285,-6.3299,-6.3456,-6.3491,-6.352,0,0,0,0,0,0,-6.3173,-6.3124,-6.3069,-6.3189,-6.319,-6.3153,-6.3223,-6.3156,-6.318,-6.3163,-6.3081,-6.3078,-6.3185,-6.3172,-6.3092,-6.3288,-6.3177,-6.3194,-6.3292,-6.3324,-6.3351,-6.3351,-6.2951,0,0,0,0,0,-6.3224,-6.3273,-6.3228,-6.3338,-6.3341,-6.3283,-6.3305,-6.3253,-6.3251,-6.3251,-6.3226,-6.3228,-6.3268,-6.3296,-6.3329,-6.3466,-6.3459,-6.3534,-6.356,-6.3582,-6.3598,-6.3668,-6.3701,-6.3354,-6.3354,-6.3354,0,0,-6.3331,-6.331,-6.3346,-6.3372,-6.3366,-6.3419,-6.3284,-6.3346,-6.3385,-6.326,-6.3347,-6.333,-6.3326,-6.3442,-6.3492,-6.3435,-6.3693,-6.3601,-6.3619,-6.3623,-6.3687,-6.3719,-6.3749,-6.3364,-6.3362,-6.3361,0,0,-6.3552,-6.3542,-6.3631,-6.3628,-6.362,-6.358,-6.3603,-6.3576,-6.3559,-6.3644,-6.3551,-6.3597,-6.3667,-6.3668,-6.3678,-6.3899,-6.3827,-6.3913,-6.4051,-6.4121,-6.4148,-6.4172,-6.4249,-6.4278,-6.3929,-6.393,-6.393,0,-6.3686,-6.3761,-6.3686,-6.3754,-6.3768,-6.3656,-6.3747,-6.3748,-6.3753,-6.3765,-6.3701,-6.3786,-6.3776,-6.3889,-6.3943,-6.3955,-6.3978,-6.3914,-6.415,-6.4173,-6.4194,-6.4267,-6.4297,-6.394,-6.3939,-6.3938,-6.3937,0,-6.3925,-6.3979,-6.4053,-6.4058,-6.408,-6.416,-6.4097,-6.4129,-6.4076,-6.4043,-6.4132,-6.4116,-6.4144,-6.4167,-6.4117,-6.4274,-6.4238,-6.4164,-6.405,-6.4239,-6.4306,-6.4333,-6.3955,-6.3951,-6.3948,-6.3946,0,0,-6.4253,-6.4215,-6.4243,-6.4243,-6.4227,-6.4267,-6.4342,-6.4368,-6.4396,-6.4404,-6.4463,-6.4525,-6.4455,-6.4467,-6.4415,-6.4477,-6.4651,-6.4394,-6.4392,-6.4441,-6.4822,-6.4878,-6.4911,-6.4604,-6.4609,-6.4613,-6.4822,0,-6.4465,-6.4587,-6.4522,-6.4654,-6.4702,-6.4597,-6.4661,-6.4659,-6.4631,-6.4668,-6.4637,-6.4682,-6.4587,-6.4593,-6.4649,-6.4618,-6.4727,-6.4603,-6.4659,-6.4662,-6.4661,-6.4946,-6.5005,-6.5203,-6.4848,-6.4852,-6.4856,0,-6.4728,-6.4744,-6.4881,-6.4853,-6.4871,-6.493,-6.4948,-6.4985,-6.4981,-6.4956,-6.4968,-6.4902,-6.4974,-6.4862,-6.496,-6.4877,-6.4896,-6.4885,-6.4891,-6.4893,-6.4769,-6.4955,-6.5265,-6.5295,-6.4897,-6.4893,-6.489,0,-6.4951,-6.5008,-6.5096,-6.51,-6.5071,-6.5115,-6.5105,-6.5094,-6.5113,-6.513,-6.5141,-6.5167,-6.5181,-6.5203,-6.5146,-6.507,-6.5251,-6.5135,-6.5232,-6.5234,-6.5274,-6.5272,-6.5591,-6.529,-6.5289,-6.5289,-6.5288,0,-6.5194,-6.5281,-6.5195,-6.525,-6.5344,-6.5269,-6.5365,-6.5344,-6.5335,-6.5384,-6.5296,-6.5344,-6.5266,-6.5307,-6.5263,-6.535,-6.5358,-6.5339,-6.5326,-6.5346,-6.5349,-6.5357,-6.5341,-6.5296,-6.5295,-6.5293,-6.5292,0,-6.5459,-6.5405,-6.5494,-6.5459,-6.5452,-6.5523,-6.5493,-6.5543,-6.5508,-6.5571,-6.5582,-6.5528,-6.5571,-6.5516,-6.5556,-6.5526,-6.5644,-6.5611,-6.5645,-6.5635,-6.5735,-6.5726,-6.6069,-6.6109,-6.5784,-6.5787,-6.579,0,-6.5616,-6.568,-6.5652,-6.5677,-6.5672,-6.5715,-6.5733,-6.5662,-6.5686,-6.5684,-6.5734,-6.5769,-6.5794,-6.5868,-6.5833,-6.5862,-6.5829,-6.5947,-6.5833,-6.585,-6.5829,-6.5825,-6.5831,-6.597,-6.5974,-6.5977,-6.598,0,-6.5901,-6.5871,-6.5901,-6.5921,-6.5946,-6.5959,-6.5966,-6.5992,-6.5918,-6.5949,-6.5991,-6.601,-6.6048,-6.6085,-6.6104,-6.6095,-6.6026,-6.6016,-6.604,-6.606,-6.6077,-6.6068,-6.5707,-6.6008,-6.6006,-6.6004,-6.6002,-6.6001,-6.6116,-6.6167,-6.6155,-6.619,-6.6188,-6.6196,-6.624,-6.621,-6.6243,-6.6267,-6.6224,-6.6278,-6.6271,-6.6289,-6.6288,-6.6329,-6.6278,-6.6313,-6.6322,-6.6331,-6.6346,-6.6072,-6.6333,-6.6332,-6.6331,-6.6331,-6.633,0,-6.6395,-6.6381,-6.6415,-6.6426,-6.6454,-6.6385,-6.6389,-6.6418,-6.6465,-6.6463,-6.6489,-6.6537,-6.6572,-6.654,-6.6568,-6.6607,-6.6576,-6.6617,-6.6613,-6.6612,-6.639,-6.6366,-6.6642,-6.6642,-6.6641,-6.6641,-6.6641,-6.6641,-6.6543,-6.6626,-6.6595,-6.6676,-6.6661,-6.6711,-6.6719,-6.6726,-6.6724,-6.6782,-6.6809,-6.6787,-6.6774,-6.6801,-6.683,-6.6819,-6.6833,-6.6886,-6.6864,-6.6658,-6.6627,-6.6598,-6.6575,-6.689,-6.689,-6.7082,-6.7083,-6.7085]},{"header":{"parameterUnit":"m.s-1","parameterCategory":1,"la1":30.2991,"la2":30.254,"lo1":-89.0895,"lo2":-89.0444,"dy":0.0017,"dx":0.0017,"nx":28,"ny":28,"refTime":"2024-02-29T09:00:00:Z","depth":0,"parameterNumber":3,"parameterNumberName":"V-component_of_WINDS"},"data":[0,0,0,0,0,0,0,0,0,0,0,0,0,0,0,0,0,0,0,0,0,0,0,0,0,0,0,0,0,0,0,0,0,0,0,0,0,0,0,0,0,0,0,0,0,0,0,0,0,0,0,0,0,0,0,0,0,0,0.7882,0.7883,0,0.7975,0.7976,0.7977,0.7998,0.7998,0.7997,0.7996,0.8089,0.8092,0.8095,0,0,0,0,0,0,0,0,0,0,0,0,0,0.7724,0.7726,0.7882,0.7883,0.7885,0.7974,0.7976,0.7977,0.7998,0.7998,0.7997,0.7996,0.8088,0.8091,0.8095,0,0,0,0,0,0,0,0,0,0,0,0,0,0.7802,0.7727,0.7882,0.7906,0.7909,0.7974,0.7976,0.7977,0.7999,0.7998,0.7997,0.7996,0.8087,0.8091,0.8096,0.8143,0,0,0.811,0.8112,0,0,0,0,0,0,0,0,0.7797,0.7808,0.7901,0.7905,0.7908,0.7974,0.7954,0.8033,0.7999,0.7965,0.7996,0.7995,0.8051,0.8059,0.8078,0.8147,0.8151,0.811,0.8113,0.8115,0.8116,0,0,0,0,0,0,0,0.7792,0.7804,0.7919,0.7903,0.7907,0.7912,0.7922,0.7969,0.8012,0.7967,0.7969,0.798,0.8053,0.8074,0.808,0.8152,0.811,0.8114,0.8117,0.8118,0.8266,0.8267,0,0,0,0,0,0,0.7782,0.7799,0.7916,0.7921,0.7849,0.7916,0.7927,0.7954,0.8012,0.8019,0.7981,0.7981,0.8066,0.8075,0.8084,0.8144,0.8115,0.8119,0.8122,0.8265,0.8266,0.8268,0,0,0,0,0,0,0.7779,0.7793,0.7912,0.7861,0.7876,0.7919,0.7949,0.7956,0.7977,0.8022,0.8029,0.7994,0.8066,0.8077,0.8128,0.8147,0.8121,0.8125,0.8263,0.8265,0.8267,0.8263,0,0,0,0,0,0,0.7774,0.7791,0.781,0.7861,0.7879,0.7955,0.7951,0.7959,0.7985,0.7986,0.8036,0.8043,0.8066,0.8121,0.8133,0.8153,0.8129,0.8262,0.8264,0.8266,0.8261,0.8264,0.8267,0,0,0,0,0,0.7769,0.7804,0.781,0.7824,0.7903,0.7956,0.7967,0.7992,0.7986,0.8005,0.8034,0.8042,0.8143,0.8126,0.8139,0.8161,0.8261,0.8264,0.8266,0.826,0.8264,0.8267,0,0,0,0,0,0,0.7752,0.7811,0.7819,0.7872,0.7909,0.796,0.7984,0.7995,0.8034,0.8033,0.8063,0.8074,0.8123,0.8147,0.8128,0.821,0.8202,0.8207,0.8193,0.8196,0.8199,0.8192,0.8133,0,0,0,0,0,0.7755,0.7794,0.7843,0.7885,0.7904,0.7941,0.7965,0.7982,0.8021,0.8037,0.8069,0.8107,0.8147,0.8173,0.8213,0.8265,0.8277,0.8287,0.8289,0.8291,0.8295,0.8326,0.8331,0.8276,0.8276,0.8276,0,0,0.7761,0.7798,0.782,0.7883,0.7914,0.7953,0.7954,0.7995,0.8025,0.8043,0.8094,0.8119,0.8163,0.8215,0.824,0.8237,0.8313,0.8294,0.8296,0.8299,0.8329,0.8334,0.8339,0.8278,0.8278,0.8277,0,0,0.7792,0.7823,0.7863,0.7894,0.7941,0.7966,0.7975,0.8025,0.8043,0.8095,0.8109,0.8145,0.8214,0.8245,0.8269,0.8314,0.8323,0.8326,0.8339,0.8369,0.8373,0.8377,0.8394,0.8399,0.833,0.833,0.833,0,0.7793,0.7853,0.7881,0.7923,0.795,0.797,0.801,0.8039,0.8096,0.8114,0.811,0.8198,0.8229,0.8289,0.8301,0.832,0.8332,0.832,0.8371,0.8375,0.8379,0.8395,0.8401,0.833,0.833,0.833,0.833,0,0.7853,0.7895,0.7921,0.7977,0.8007,0.8048,0.8082,0.8109,0.8124,0.8149,0.8202,0.824,0.8288,0.8304,0.8318,0.8367,0.8364,0.8365,0.8357,0.8384,0.84,0.8406,0.8331,0.8331,0.833,0.833,0,0,0.7875,0.7947,0.7956,0.7983,0.8037,0.807,0.8112,0.816,0.8183,0.8222,0.8258,0.8317,0.8319,0.8347,0.8365,0.8391,0.8425,0.8389,0.8391,0.8395,0.8482,0.8481,0.8488,0.8431,0.8433,0.8434,0.8479,0,0.7912,0.7988,0.8016,0.8078,0.8118,0.8138,0.8174,0.8211,0.8236,0.8273,0.8301,0.8342,0.8341,0.8359,0.8385,0.8415,0.8443,0.8412,0.8465,0.8467,0.8454,0.8496,0.8495,0.8535,0.8485,0.8486,0.8487,0,0.7966,0.8008,0.8075,0.8126,0.8143,0.8175,0.8223,0.8258,0.8301,0.8317,0.835,0.8366,0.8411,0.8401,0.8463,0.8441,0.8465,0.8483,0.8485,0.8491,0.8478,0.8503,0.8549,0.8555,0.8497,0.8496,0.8495,0,0.7977,0.8049,0.8099,0.8121,0.8181,0.8203,0.8229,0.8272,0.8299,0.8341,0.8359,0.8404,0.8429,0.8464,0.8493,0.8482,0.8553,0.8544,0.8568,0.8567,0.8581,0.858,0.8631,0.8596,0.8596,0.8596,0.8595,0,0.8016,0.8056,0.8104,0.8135,0.8181,0.8212,0.8256,0.8284,0.8321,0.8357,0.8377,0.8411,0.8446,0.8484,0.8507,0.8556,0.8566,0.8581,0.8587,0.858,0.8578,0.8595,0.8593,0.8597,0.8597,0.8597,0.8596,0,0.8035,0.8069,0.8124,0.8178,0.8192,0.8223,0.8269,0.83,0.8326,0.8372,0.8384,0.8426,0.8472,0.8504,0.8563,0.8578,0.8631,0.8636,0.8617,0.8619,0.8641,0.8639,0.8706,0.8716,0.8673,0.8674,0.8674,0,0.8058,0.8089,0.8147,0.8173,0.8199,0.8241,0.827,0.8302,0.8332,0.8384,0.8408,0.8456,0.8496,0.8569,0.8604,0.865,0.8656,0.8676,0.8663,0.8655,0.8657,0.8655,0.8658,0.8678,0.8679,0.8679,0.8679,0,0.8095,0.8111,0.8152,0.82,0.8234,0.8273,0.8312,0.8332,0.8372,0.8404,0.8452,0.8483,0.8544,0.8591,0.8641,0.8667,0.868,0.8683,0.8691,0.8684,0.8672,0.8679,0.8622,0.8681,0.8681,0.8681,0.8681,0.8681,0.8117,0.8147,0.8192,0.8238,0.8271,0.8308,0.8339,0.8371,0.8412,0.8465,0.8481,0.8531,0.8575,0.8642,0.867,0.871,0.8708,0.8719,0.8722,0.8724,0.8725,0.8666,0.8719,0.8719,0.8718,0.8718,0.8718,0,0.8156,0.8187,0.8229,0.8283,0.832,0.833,0.8374,0.8403,0.8448,0.8487,0.8527,0.8583,0.8629,0.8669,0.8717,0.8741,0.8748,0.8753,0.8751,0.8757,0.8723,0.8712,0.8746,0.8746,0.8746,0.8746,0.8746,0.8746,0.818,0.8231,0.8253,0.8321,0.8351,0.8401,0.8426,0.8459,0.8492,0.8554,0.8593,0.8619,0.8659,0.871,0.8753,0.8764,0.8781,0.8784,0.8796,0.8763,0.876,0.8756,0.8746,0.8787,0.8787,0.8827,0.8827,0.8828]}]]